Location: Kawakawa
(35.3830°S, 174.0670°E)
Time: 04:18:03
(UTC+13:00)

Explorer 7 - Visible Passes

Search period start: 16 December 2019 00:00
Search period end: 26 December 2019 00:00
Orbit: 485 x 680 km, 50.3° (Epoch: 14 December)

Date Brightness Start Highest point End Pass type
(mag) Time Alt. Az. Time Alt. Az. Time Alt. Az.
16 Dec 7.5 03:26:22 43° SSW 03:26:22 43° SSW 03:30:01 10° SE visible
16 Dec 9.3 05:06:02 10° SW 05:07:35 12° SSW 05:09:08 10° S visible
17 Dec 9.7 01:54:28 10° ESE 01:54:28 10° ESE 01:54:33 10° ESE visible
17 Dec 8.2 03:30:45 26° SW 03:31:23 28° SSW 03:34:45 10° SSE visible
18 Dec 9.3 01:58:49 16° SE 01:58:49 16° SE 01:59:38 10° SE visible
18 Dec 8.9 03:35:06 16° SW 03:36:31 19° SSW 03:39:24 10° SSE visible
19 Dec 9.0 02:03:05 22° SE 02:03:05 22° SE 02:04:33 10° SE visible
19 Dec 9.4 03:39:29 10° SW 03:41:44 15° SSW 03:43:57 10° SSE visible
20 Dec 8.9 02:07:18 26° SSE 02:07:18 26° SSE 02:09:22 10° SE visible
20 Dec 9.6 03:45:38 10° SW 03:47:02 11° SSW 03:48:24 10° S visible
21 Dec 8.9 02:11:25 24° SSW 02:11:25 24° SSW 02:14:05 10° SSE visible
21 Dec 9.8 05:33:20 10° S 05:34:24 11° SSE 05:35:28 10° SSE visible
22 Dec 9.2 02:15:26 18° SSW 02:15:55 18° SSW 02:18:43 10° SSE visible
22 Dec 9.6 05:37:41 10° SSW 05:39:43 14° SSE 05:41:44 10° SE visible
23 Dec 9.3 00:43:02 16° SE 00:43:02 16° SE 00:43:56 10° SE visible
23 Dec 9.6 02:19:17 11° SW 02:21:09 14° SSW 02:23:17 10° SSE visible
24 Dec 8.9 00:46:35 25° S 00:46:35 25° S 00:48:43 10° SE visible
24 Dec 9.9 02:25:11 10° SSW 02:26:28 11° SSW 02:27:44 10° S visible
24 Dec 9.4 23:13:17 11° ESE 23:13:17 11° ESE 23:13:28 10° ESE visible
25 Dec 9.0 00:49:26 22° SW 00:50:07 23° SSW 00:53:24 10° SSE visible
25 Dec 9.9 04:12:20 10° S 04:13:51 12° SSE 04:15:21 10° SE visible
25 Dec 8.6 21:31:44 10° NNE 21:34:07 14° NE 21:36:26 10° E visible
25 Dec 6.9 23:09:52 10° NW 23:14:16 77° SW 23:18:27 10° SE visible
